Regional Weather Roundup
Issued by NWS Sterling, VA

Home | Current Version | Previous Version | Graphics & Text | Print | Product List | Glossary On
Versions: 1 2 3 4 5 6 7 8 9 10 11 12 13 14 15 16 17 18 19 20 21 22 23 24 25 26 27 28 29 30 31 32 33 34 35 36 37 38 39 40 41 42 43 44 45 46 47 48 49 50
000
ASUS41 KLWX 040510
RWRLWX

REGIONAL WEATHER ROUNDUP
NATIONAL WEATHER SERVICE BALTIMORE MD/WASHINGTON DC
100 AM EDT TUE AUG 04 2015

Note: "FAIR" indicates few or no clouds below 12,000 feet
with no significant weather and/or obstructions to visibility.
 TC=TEMPERATURE CELSIUS

 * =Non NWS site. Station does not report precipitation (e.g. rain,
    snow, etc.), thunder, or fog.

DCZ001-MDZ009-015-VAZ040>042-051-053>054-040600-
WASHINGTON METRO

CITY           SKY/WX    TMP DP  RH WIND       PRES   REMARKS
WASHINGTON NAT MOCLDY    81  69  67 S6        29.84S HAZE
DULLES         PTCLDY    74  64  71 S7        29.85R
ANDREWS AFB    PTCLDY    77  67  72 SW9       29.84S
FT BELVOIR     PTCLDY    73  69  88 VRB1      29.85R
COLLEGE PARK*  PTCLDY    77  68  73 CALM      29.84S
LEESBURG*      PTCLDY    77  68  73 W7        29.86S
MANASSAS*      PTCLDY    70  66  88 CALM      29.86S
GAITHERSBURG*  PTCLDY    75  61  60 CALM      29.89S

$$

MDZ006>007-011-014-040600-
BALTIMORE METRO

CITY           SKY/WX    TMP DP  RH WIND       PRES   REMARKS
BWI AIRPORT    PTCLDY    77  65  66 SW3       29.83S
MD SCIENCE CTR   N/A     81  65  58 MISG      29.82F
MARTIN STATE   PTCLDY    81  68  65 S3        29.83F
ANNAPOLIS      CLEAR     78  69  73 S3        29.83S
FORT MEADE*    PTCLDY    68  64  88 CALM      29.86S

$$

MDZ012-015-019>023-040600-
MARYLAND EASTERN SHORE

CITY           SKY/WX    TMP DP  RH WIND       PRES   REMARKS
OCEAN CITY     CLEAR     80  75  84 SW13G20   29.88S
SALISBURY      CLEAR     77  74  90 S9        29.87S
BAY BRIDGE AP*   N/A     81  70  69 S8        29.84S
CAMBRIDGE*     CLEAR     81  73  78 S6        29.85F
EASTON*        CLEAR     81  75  82 SW9       29.88S

$$

MDZ017>025-040600-
SOUTHERN MARYLAND

CITY           SKY/WX    TMP DP  RH WIND       PRES   REMARKS
PATUXENT RIVER CLEAR     79  72  79 SW10      29.86S
ST INIGOES     CLEAR     80  74  81 S10G18    29.86R
LEONARDTOWN*   CLEAR     79  70  73 SW6       29.88S

$$

MDZ003>005-040600-
NORTH CENTRAL MARYLAND

CITY           SKY/WX    TMP DP  RH WIND       PRES   REMARKS
FREDERICK*     PTCLDY    72  66  83 S3        29.87S
HAGERSTOWN APT PTCLDY    78  64  61 S3        29.85S
WESTMINSTER*   PTCLDY    77  64  65 SW7         N/A

$$

MDZ501>502-040600-
WESTERN MARYLAND

CITY           SKY/WX    TMP DP  RH WIND       PRES   REMARKS
OAKLAND*       MOCLDY    66 N/A N/A W7G20     29.97S
CUMBERLAND*    MOCLDY    73  61  64 CALM      29.90S

$$

VAZ025>031-040600-
SHENANDOAH VALLEY

CITY           SKY/WX    TMP DP  RH WIND       PRES   REMARKS
WINCHESTER*    PTCLDY    77  63  61 SW6       29.87S
FRONT ROYAL*   FAIR      75  63  64 SW5       29.87S
LURAY*         FAIR      73  63  68 SW3       29.91R
NEW MARKET*    FAIR      68  64  86 W5        29.90R
STAUNTON*      PTCLDY    72  62  71 CALM      29.95R
WAYNESBORO*    FAIR      72  60  67 SW3       29.95S

$$

WVZ021-048>050-054>055-040600-
EASTERN WEST VIRGINIA PANHANDLE

CITY           SKY/WX    TMP DP  RH WIND       PRES   REMARKS
MARTINSBURG    PTCLDY    72  64  76 SW6       29.85F
PETERSBURG*    PTCLDY    67  62  85 CALM      29.90F

$$

VAZ036>039-050-040600-
CENTRAL FOOTHILLS

CITY           SKY/WX    TMP DP  RH WIND       PRES   REMARKS
CHARLOTTESVILL PTCLDY    72  65  78 SW3       29.89S
CULPEPER*      PTCLDY    70  65  82 CALM      29.88R
ORANGE*        PTCLDY    70  66  88 CALM      29.90R
GORDONSVILLE*  FAIR      66  66 100 CALM      29.89R
WARRENTON*     FAIR      73  67  81 SW3       29.86S

$$

VAZ055>057-040600-
NORTH AND CENTRAL PIEDMONT

CITY           SKY/WX    TMP DP  RH WIND       PRES   REMARKS
FREDERICKSBRG* PTCLDY    79  69  69 SW8       29.86R
STAFFORD*      PTCLDY    76  66  72 SW5       29.90R

$$

NCZ024-NYZ072-PAZ021-071-VAZ022-071-040600-
OTHER REGIONAL OBSERVATIONS

CITY           SKY/WX    TMP DP  RH WIND       PRES   REMARKS
NEW YORK CITY  PTCLDY    81  62  52 SW6       29.84S
PHILADELPHIA   PTCLDY    80  71  74 SW9       29.83R
PITTSBURGH     CLOUDY    67  64  90 CALM      29.88R
ROANOKE        CLOUDY    75  60  59 W8        29.99R
RICHMOND       CLEAR     79  71  76 S10       29.89S
RALEIGH        PTCLDY    79  70  74 SW9       29.97S

$$

ANZ530>537-040600-
MARINE OBSERVATIONS

STATION/POSITION TIME  TEMP    WIND        PRES
                       AIR SEA DIR/SP/G
                 (UTC) (F)     (DEG/KT/KT) (MB)
THOMAS PT LIGHT  NOT AVBL
BALT KEY BRIDGE  0400   81     210/ 10/ 12 1009.6R
COVE POINT       0400   81     220/ 12/ 16 1011.5R
LEWISETTA        0400   80 85  220/ 11/ 13 1011.0R
SOLOMONS ISLAND  0400      83                N/A
PINEY POINT      0400          220/ 14/ 16   N/A

$$




USA.gov is the U.S. government's official web portal to all federal, state and local government web resources and services.